Weather in Starobesheve

Ukraine / Donetsk Region     47°45′05″N   38°02′09″E
temp.,
°C
wind,
m/s
gust,
m/s
humid.,
%
clouds,
%
prec.,
mm/h
press.,
hPa
HPBL,
m
25 may, wed
wed2500:00+10w356963 0.0 101482
03:00+10w367234 0.0 1015113
06:00+10w36774 0.0 1016140
09:00+16w56535 0.0 1017692
12:00+19wnw664499 0.0 10172550
15:00+17nw4555100 0.0 10181213
18:00+17w4760100 0.0 1018413
21:00+14w366884 0.0 1019103
26 may, thu
thu2600:00+13wsw356590 0.0 102085
03:00+11w33726 0.0 102028
06:00+12wsw22741 0.0 101945
09:00+19ssw33495 0.0 1019716
12:00+21sw664271 0.0 10182323
15:00+20ssw8951100 0.0 10171880
18:00+17sw71263100 0.1 1016744
21:00+13wsw41193100 1.0 1017813
27 may, fri
fri2700:00+11wsw49957 0.0 1017269
03:00+10wsw311955 0.0 1016240
06:00+12w511915 0.0 1016327
09:00+18w710638 0.0 1016999
12:00+21w8115061 0.0 10152133
15:00+20wnw6956100 0.0 10151558
18:00+20wnw585970 0.0 10151261
21:00+16wnw22720 0.0 101610
28 may, sat
sat2800:00+14ssw22802 0.0 101615
03:00+13ssw22810 0.0 101511
06:00+15s2481100 0.0 1014100
09:00+17ssw3872100 0.0 1014319
12:00+24sw78446 0.0 10142048
15:00+23sw685397 0.0 1013967
18:00+22ssw68571 0.0 1014785
21:00+16s487625 0.0 1015128
29 may, sun
sun2900:00+15ssw23730 0.0 101426
03:00+13sw11750 0.0 101510
06:00+15s117399 0.0 101520
09:00+21s235716 0.0 1015615
12:00+24sw34456 0.0 10151691
15:00+22nw5560100 0.0 1016663
18:00+19n56718 0.0 1016398
21:00+15nne488671 0.0 1018196